Weather Roundup
Issued by NWS

Home | Current Version | Previous Version | Text Only | Print | Product List | Glossary On
Versions: 1 2 3 4 5 6 7 8 9 10 11 12 13 14 15 16 17 18 19 20 21 22 23 24 25 26 27 28 29 30 31 32 33 34 35 36 37 38 39 40 41 42 43 44 45 46 47 48 49 50
584
NZUS93 KARX 021059
HRRWXR

CURRENT HOURLY OBSERVATIONS ACROSS
MUCH OF THE UPPER MISSISSIPPI VALLEY
NATIONAL WEATHER SERVICE LA CROSSE WI
600 AM CDT MON MAY 02 2016


...SOUTHEAST MINNESOTA...


CITY           SKY/WX    TMP DP  RH WIND       PRES   REMARKS
ROCHESTER      CLEAR     39  39 100 S6        30.11S WCI  35
ROCHESTER/MAYO FAIR      42  40  92 SE5       30.11S
WINONA         CLEAR     37  37 100 CALM      30.13R
AUSTIN         PTCLDY    36  36 100 CALM      30.10S FOG
ALBERT LEA     NOT AVBL
DODGE CENTER   PTCLDY    36  36 100 CALM      30.10S
PRESTON        CLEAR     40  38  93 CALM      30.12R
OWATONNA         N/A     34  34 100 CALM      30.11R FOG
FARIBAULT      CLEAR     36  34  93 CALM      30.11S
$$

...ELSEWHERE IN MINNESOTA...


CITY           SKY/WX    TMP DP  RH WIND       PRES   REMARKS
MINNEAPOLIS    CLEAR     41  36  82 NW5       30.11S
INTNL FALLS    PTCLDY    29  26  89 CALM      30.10S
DULUTH         CLEAR     32  29  88 CALM      30.12R
RED WING       CLEAR     37  34  87 CALM      30.10S
REDWOOD FALLS  CLEAR     40  32  73 W5        30.11F
MANKATO        CLEAR     43  34  70 CALM      30.10S
WORTHINGTON    CLEAR     40  33  76 W3        30.13S
FAIRMONT       CLEAR     39  32  75 NW5       30.11R
$$

...SOUTHWEST WISCONSIN...


CITY           SKY/WX    TMP DP  RH WIND       PRES   REMARKS
LA CROSSE      CLEAR     37  34  89 E5        30.12S WCI  33
PRAIRIE DU CHI FOG       40  39  97 CALM      30.12R VSB 1/4
BOSCOBEL       FOG       36  35  96 CALM      30.12S VSB 1/4
LONE ROCK      PTCLDY    36  34  93 W5        30.11S FOG     WCI  32
PLATTEVILLE    MOCLDY    43  41  94 N8        30.08F
FORT MC COY    CLEAR     29  28  96 CALM      30.13S
CAMP DOUGLAS   FOG       28  28 100 CALM      30.11F VSB 1/4
MAUSTON-NEW LI SUNNY     33  32  98 NW3       30.11S
VIROQUA        FAIR      40  37  89 CALM      30.10S
WIS DELLS      CLEAR     34  33  96 CALM      30.10F FOG
$$

...ELSEWHERE IN WISCONSIN...


CITY           SKY/WX    TMP DP  RH WIND       PRES   REMARKS
MILWAUKEE      PTCLDY    40  36  86 N7        30.07R
MADISON        PTCLDY    40  37  89 CALM      30.09F
GREEN BAY      CLEAR     39  32  76 CALM      30.11R
EAU CLAIRE     NOT AVBL
BLACK RVR FLS  FAIR      28  28 100 CALM      30.13S
MEDFORD        CLEAR     32  32 100 CALM      30.11S
WAUSAU         CLEAR     36  33  89 CALM      30.11R
WIS RAPIDS     CLEAR     33  30  88 CALM      30.14R
MARSHFIELD     CLEAR     36  31  82 CALM      30.11R
RICE LAKE      CLEAR     36  32  88 CALM      30.12F
$$

...NORTHEAST IOWA...


CITY           SKY/WX    TMP DP  RH WIND       PRES   REMARKS
WATERLOO       FOG       35  34  96 CALM      30.10S VSB 1/4
DUBUQUE        CLOUDY    45  42  89 N5        30.09R
DECORAH        CLEAR     39  39 100 E6        30.10S FOG     WCI  35
MASON CITY     CLEAR     36  34  92 CALM      30.11F FOG
CHARLES CITY   CLOUDY    43  43 100 N5        30.10F
OELWEIN        CLEAR     41  41 100 NE7       30.11R
$$

...ELSEWHERE IN IOWA...


CITY           SKY/WX    TMP DP  RH WIND       PRES   REMARKS
DES MOINES     PTCLDY    42  40  92 CALM      30.11S FOG
IOWA CITY      CLOUDY    46  42  86 N7        30.10S
FORT DODGE     CLOUDY    37  34  87 CALM      30.12S
MARSHALLTOWN   FOG       37  36  96 CALM      30.10S VSB 3/4
CEDAR RAPIDS   CLOUDY    45  44  97 N7        30.08S
$$

...NORTHERN ILLINOIS...


CITY           SKY/WX    TMP DP  RH WIND       PRES   REMARKS
CHICAGO-OHARE  MOCLDY    45  37  73 N7        30.04R
CHICAGO-MIDWAY MOCLDY    46  37  71 NE13      30.03S
MOLINE         CLOUDY    49  45  86 NE6       30.07R
ROCKFORD       CLOUDY    47  44  90 N7        30.08R
PEORIA         CLOUDY    48  45  89 N5        30.05R
$$

NOTE: "FAIR" INDICATES FEW OR NO CLOUDS BELOW 12,000 FEET WITH NO
SIGNIFICANT WEATHER AND/OR OBSTRUCTIONS TO VISIBILITY. WIND
SPEEDS ARE IN MILES-PER-HOUR.




USA.gov is the U.S. government's official web portal to all federal, state and local government web resources and services.